EW3061 Weather Reports


time (UTC)temp
C
wind
direction
speed
KPH
gust
KPH
rain 1hr
cm
rain 24hr
cm
rain mn
cm
humidity
%
barometer
mb
20260505041517 19 0.0 0.0 0.00 0.00 0.00 62 1007.4
20260505040517 19 0.0 0.0 0.00 0.00 0.00 61 1007.7
20260505035517 20 0.0 0.0 0.00 0.00 0.00 61 1007.8
20260505034517 20 0.0 0.0 0.00 0.00 0.00 60 1007.9
20260505033516 20 0.0 0.0 0.00 0.00 0.00 59 1008.0
20260505032517 20 0.0 0.0 0.00 0.00 0.00 59 1008.0
20260505031516 20 0.0 0.0 0.00 0.00 0.00 59 1008.3
20260505030516 20 0.0 0.0 0.00 0.00 0.00 60 1008.2
20260505025516 20 0.0 0.0 0.00 0.00 0.00 60 1008.1
20260505024516 20 0.0 0.0 0.00 0.00 0.00 60 1008.2
20260505023516 20 0.0 0.0 0.00 0.00 0.00 61 1008.1
20260505022516 19 0.0 0.0 0.00 0.00 0.00 62 1007.9
20260505021617 19 0.0 0.0 0.00 0.00 0.00 62 1007.8
20260505020517 19 0.0 0.0 0.00 0.00 0.00 62 1007.6
20260505015516 19 0.0 0.0 0.00 0.00 0.00 62 1007.3
20260505014536 19 0.0 0.0 0.00 0.00 0.00 62 1007.2
20260505013516 20 0.0 0.0 0.00 0.00 0.00 61 1006.9
20260505012516 20 0.0 0.0 0.00 0.00 0.00 60 1006.7
20260505011517 20 0.0 0.0 0.00 0.00 0.00 59 1006.8
20260505010516 20 0.0 0.0 0.00 0.00 0.00 58 1006.6
20260505005516 21 0.0 0.0 0.00 0.00 0.00 57 1006.5
20260505004516 21 0.0 0.0 0.00 0.00 0.00 57 1006.6
20260505003516 21 0.0 0.0 0.00 0.00 0.00 56 1006.6
20260505002516 21 0.0 0.0 0.00 0.00 0.00 56 1006.7
20260505001516 21 0.0 0.0 0.00 0.00 0.00 55 1006.6
20260505000536 21 0.0 0.0 0.00 0.00 0.00 56 1006.7
20260504235516 22 0.0 0.0 0.00 0.00 0.00 56 1006.8
20260504234536 22 0.0 0.0 0.00 0.00 0.00 55 1006.9
20260504233616 22 0.0 0.0 0.00 0.00 0.00 55 1007.1
20260504232516 22 0.0 0.0 0.00 0.00 0.00 54 1007.3
20260504231516 23 0.0 0.0 0.00 0.00 0.00 54 1007.3
20260504230516 23 0.0 1.6 0.00 0.00 0.00 53 1007.5
20260504225516 23 0.0 0.0 0.00 0.00 0.00 53 1007.7
20260504224516 23 0.0 0.0 0.00 0.00 0.00 52 1007.8
20260504223516 23 0.0 0.0 0.00 0.00 0.00 52 1007.8
20260504222516 23 0.0 0.0 0.00 0.00 0.00 49 1007.8
20260504221516 23 0.0 0.0 0.00 0.00 0.00 50 1007.8
20260504220516 23 0.0 0.0 0.00 0.00 0.00 50 1007.9
20260504215516 23 0.0 0.0 0.00 0.00 0.00 54 1007.8
20260504214536 23 0.0 0.0 0.00 0.00 0.00 58 1007.8
20260504213516 23 0.0 0.0 0.00 0.00 0.00 55 1007.7
20260504212516 22 0.0 0.0 0.00 0.00 0.00 56 1007.9
20260504211516 22 0.0 0.0 0.00 0.00 0.00 57 1007.5
20260504210516 22 0.0 0.0 0.00 0.00 0.00 57 1008.0
20260504205516 22 0.0 0.0 0.00 0.00 0.00 58 1008.3
20260504204516 22 0.0 0.0 0.00 0.00 0.00 55 1009.0
20260504203516 22 0.0 0.0 0.00 0.00 0.00 59 1009.1
20260504202516 22 0.0 0.0 0.00 0.00 0.00 58 1009.3
20260504201536 22 0.0 0.0 0.00 0.00 0.00 60 1009.3
20260504200516 21 0.0 0.0 0.00 0.00 0.00 64 1009.3
20260504195516 21 0.0 0.0 0.00 0.00 0.00 66 1009.3
20260504194516 20 0.0 0.0 0.00 0.00 0.00 67 1009.4
20260504193516 18 0.0 0.0 0.00 0.00 0.00 65 1009.3
20260504192516 18 0.0 0.0 0.00 0.00 0.00 64 1009.6
20260504191536 18 0.0 0.0 0.00 0.00 0.00 61 1009.6
20260504190516 17 0.0 0.0 0.00 0.00 0.00 63 1009.6
20260504185516 17 0.0 0.0 0.00 0.00 0.00 64 1009.8
20260504184516 17 0.0 0.0 0.00 0.00 0.00 66 1009.7
20260504183516 17 0.0 0.0 0.00 0.00 0.00 66 1009.4
20260504182516 18 0.0 0.0 0.00 0.00 0.00 67 1009.8
20260504181516 18 0.0 0.0 0.00 0.00 0.00 66 1010.1
20260504180516 18 0.0 0.0 0.00 0.00 0.00 66 1009.8
20260504175516 18 0.0 0.0 0.00 0.00 0.00 67 1009.9
20260504174536 18 0.0 0.0 0.00 0.00 0.00 66 1010.2
20260504173516 19 0.0 0.0 0.00 0.00 0.00 66 1009.7
20260504172516 19 0.0 0.0 0.00 0.00 0.00 66 1009.9
20260504171536 20 0.0 1.6 0.00 0.00 0.00 65 1009.7
20260504170516 20 0.0 0.0 0.00 0.00 0.00 64 1009.6
20260504150516 18 0.0 0.0 0.00 0.00 0.00 67 1010.3
20260504140535 16 0.0 0.0 0.00 0.00 0.00 68 1010.3
20260504130515 13 0.0 0.0 0.00 0.00 0.00 64 1010.2
20260504110535 12 0.0 0.0 0.00 0.00 0.00 69 1010.3
20260504100515 11 0.0 0.0 0.00 0.00 0.00 69 1010.6
20260504081555 12 0.0 0.0 0.00 0.00 0.00 68 1011.2
20260504080517 12 0.0 0.0 0.00 0.00 0.00 68 1011.2
20260504050517 11 0.0 0.0 0.00 0.00 0.00 68 1013.3
20260504045517 11 0.0 0.0 0.00 0.00 0.00 68 1013.2
20260504044517 12 0.0 0.0 0.00 0.00 0.00 68 1013.2
20260504043537 12 0.0 0.0 0.00 0.00 0.00 67 1013.4
20260504042517 12 0.0 0.0 0.00 0.00 0.00 67 1013.3